TimeCDT,TemperatureF,Dew PointF,Humidity,Sea Level PressureIn,VisibilityMPH,Wind Direction,Wind SpeedMPH,Gust SpeedMPH,PrecipitationIn,Events,Conditions,WindDirDegrees,DateUTC
12:53 AM,30.0,23.0,75,30.24,10.0,Calm,Calm,-,N/A,,Clear,0,2013-04-26 05:53:00
1:53 AM,30.0,24.1,79,30.21,10.0,ESE,3.5,-,N/A,,Partly Cloudy,110,2013-04-26 06:53:00
2:53 AM,30.9,25.0,79,30.21,10.0,Calm,Calm,-,N/A,,Scattered Clouds,0,2013-04-26 07:53:00
3:53 AM,34.0,26.1,73,30.23,10.0,West,4.6,-,N/A,,Overcast,270,2013-04-26 08:53:00
4:53 AM,37.9,25.0,60,30.20,10.0,SSE,4.6,-,0.00,Rain,Light Rain,160,2013-04-26 09:53:00
5:53 AM,35.1,28.0,76,30.19,5.0,ESE,4.6,-,0.02,Rain,Light Rain,120,2013-04-26 10:53:00
6:53 AM,35.1,30.0,82,30.19,10.0,ESE,4.6,-,0.01,Rain,Light Rain,120,2013-04-26 11:53:00
7:53 AM,37.0,30.9,79,30.16,10.0,Variable,5.8,-,0.01,Rain,Light Rain,0,2013-04-26 12:53:00
8:53 AM,39.0,33.1,79,30.14,10.0,SSE,8.1,-,0.03,,Overcast,160,2013-04-26 13:53:00
9:53 AM,46.0,35.1,66,30.12,10.0,South,10.4,17.3,N/A,,Scattered Clouds,180,2013-04-26 14:53:00
10:53 AM,53.1,34.0,48,30.13,10.0,South,15.0,-,N/A,,Clear,190,2013-04-26 15:53:00
11:53 AM,55.0,33.1,43,30.13,10.0,SSW,18.4,23.0,N/A,,Clear,210,2013-04-26 16:53:00
12:53 PM,57.0,34.0,42,30.11,10.0,SW,12.7,21.9,N/A,,Clear,230,2013-04-26 17:53:00
1:53 PM,59.0,35.1,41,30.10,10.0,SW,13.8,23.0,N/A,,Clear,220,2013-04-26 18:53:00
2:53 PM,62.1,36.0,38,30.09,10.0,SW,11.5,24.2,N/A,,Clear,220,2013-04-26 19:53:00
3:53 PM,64.0,36.0,35,30.08,10.0,SW,13.8,24.2,N/A,,Clear,230,2013-04-26 20:53:00
4:53 PM,64.9,37.0,36,30.07,10.0,SW,11.5,-,N/A,,Clear,220,2013-04-26 21:53:00
5:53 PM,64.9,37.0,36,30.09,10.0,SW,8.1,-,N/A,,Scattered Clouds,220,2013-04-26 22:53:00
6:53 PM,61.0,37.9,42,30.10,10.0,West,6.9,-,N/A,,Clear,270,2013-04-26 23:53:00
7:53 PM,61.0,37.0,41,30.12,10.0,Calm,Calm,-,N/A,,Scattered Clouds,0,2013-04-27 00:53:00
8:53 PM,46.9,36.0,66,30.15,10.0,Calm,Calm,-,N/A,,Clear,0,2013-04-27 01:53:00
9:53 PM,46.0,36.0,68,30.16,10.0,Calm,Calm,-,N/A,,Clear,0,2013-04-27 02:53:00
10:53 PM,39.0,34.0,82,30.17,6.0,Calm,Calm,-,N/A,,Haze,0,2013-04-27 03:53:00
11:53 PM,41.0,35.1,79,30.17,10.0,Calm,Calm,-,N/A,,Clear,0,2013-04-27 04:53:00